Regional Weather Roundup
Issued by NWS Glasgow, MT

Current Version | Previous Version | Text Only | Print | Product List | Glossary On
Versions: 1 2 3 4 5 6 7 8 9 10 11 12 13 14 15 16 17 18 19 20 21 22 23 24 25 26 27 28 29 30 31 32 33 34 35 36 37 38 39 40 41 42 43 44 45 46 47 48 49 50
000
ASUS45 KGGW 240715
RWRGGW
HOURLY WEATHER ROUNDUP FOR NORTHEAST MONTANA
NATIONAL WEATHER SERVICE GLASGOW MONTANA
100 AM MDT SUN MAY 24 2015

NOTE: "FAIR" INDICATES FEW OR NO CLOUDS BELOW 12,000 FEET WITH NO
SIGNIFICANT WEATHER AND/OR OBSTRUCTIONS TO VISISBILITY.

NORTHEAST MONTANA


CITY           SKY/WX    TMP DP  RH WIND       PRES   REMARKS
GLASGOW        CLEAR     50  41  71 E5        30.10S
WOLF POINT     PTCLDY    46  41  82 NW5       30.11S
JORDAN           N/A     51  45  79 E5        30.10S
WINNETT          N/A     49  44  83 N2          N/A
SIDNEY         MOCLDY    54  45  71 CALM      30.10F
GLENDIVE       CLOUDY    52  46  82 N7        30.10F
MALTA            N/A     47  43  86 SE2         N/A
SCOBEY           N/A     44  32  62 CALM      30.10S

FORT PECK REPORTS


CITY           SKY/WX    TMP DP  RH WIND       PRES   REMARKS
FORT PECK        N/A     55  47  74 E6          N/A
THE PINES        N/A     50  43  77 S3          N/A

SOUTHEAST MONTANA


CITY           SKY/WX    TMP DP  RH WIND       PRES   REMARKS
BILLINGS       MOCLDY    50  45  83 NE8       30.06F
MILES CITY     CLOUDY    52  50  93 NE9       30.06F
BAKER          CLOUDY    48  46  93 NE7       30.08F
LIVINGSTON     LGT RAIN  48  46  93 E7        30.07F

CENTRAL MONTANA


CITY           SKY/WX    TMP DP  RH WIND       PRES   REMARKS
HAVRE          PTCLDY    48  41  76 CALM      30.10S
LEWISTOWN      CLEAR     45  40  82 E5        30.12S
GREAT FALLS    CLOUDY    50  48  93 W3        30.11S
CUT BANK       CLEAR     45  42  89 N6        30.13S
HELENA         CLOUDY    51  44  77 W6        30.10S
BUTTE          CLOUDY    47  41  80 SW3       30.11S
BOZEMAN        LGT RAIN  47  45  93 CALM      30.08S

WESTERN MONTANA


CITY           SKY/WX    TMP DP  RH WIND       PRES   REMARKS
MISSOULA       CLOUDY    52  43  71 CALM      30.10S
KALISPELL      NOT AVBL

NORTH DAKOTA


CITY           SKY/WX    TMP DP  RH WIND       PRES   REMARKS
WILLISTON      CLEAR     48  43  82 CALM      30.11R
DICKINSON      PTCLDY    48  46  93 NE5       30.07F
MINOT          PTCLDY    54  46  74 SW7       30.10R
BISMARCK       CLOUDY    56  52  86 E5        30.10F

SOUTHERN SASKATCHEWAN


CITY           SKY/WX    TMP DP  RH WIND       PRES   REMARKS
REGINA         CLEAR     50  34  53 SW3       30.09S
ESTEVAN        PTCLDY    52  45  76 SW3       30.09F
SWIFT CURRENT  CLEAR     50  30  46 SW10      30.11S



USA.gov is the U.S. government's official web portal to all federal, state and local government web resources and services.